#timestamp,LO_Frequency,Hit,StdDev 
1584291615.8,286047004.1,N
1584291635.7,286047006.5,N
1584291655.5,286047011.9,N
1584291675.3,286047014.4,Y
1584291695.2,286047012.7,P
1584291715.0,286047012.4,N
1584291715.9,286047012.4,N
1584291735.8,286047009.6,N
1584291755.6,286047004.6,N
1584291775.4,286047010.8,N
1584291795.3,286047007.8,N
1584291815.1,286047009.0,N
1584291835.8,286047009.2,N
1584291855.7,286047006.0,N
1584291875.5,286047004.1,N
1584291895.3,286047008.0,N
1584291915.2,286047011.9,Y
1584291935.0,286046997.6,P
1584291935.9,286046997.6,N
1584291955.8,286046997.7,N
1584291975.6,286046999.0,N
1584291995.4,286046991.9,N
1584292015.3,286046987.7,N
1584292035.1,286046989.1,N
1584292055.9,286046990.0,N
1584292075.7,286046992.8,N
1584292095.5,286046989.3,N
1584292115.4,286046992.0,N
1584292135.2,286046990.7,N
1584292155.0,286046984.0,N
1584292155.9,286046984.0,N
1584292175.8,286046992.7,N
1584292195.6,286047000.9,N
1584292215.4,286047001.0,N
1584292235.3,286046999.6,N
1584292255.1,286047001.4,N
1584292275.9,286046993.3,N
1584292295.7,286046993.6,N
1584292315.5,286047000.7,N
1584292335.4,286047004.3,N
1584292355.2,286047004.6,N
1584292375.0,286047004.7,N
1584292375.9,286047004.7,N
1584292395.8,286047007.5,N
1584292415.6,286047005.9,N
1584292435.5,286047006.7,N
1584292455.3,286047012.0,N
1584292475.1,286047011.3,N
1584292495.9,286047013.2,N
1584292515.7,286047015.2,N
1584292535.5,286047014.0,N
1584292555.4,286047000.2,N
1584292575.2,286046996.0,N
1584292595.1,286047007.2,N
1584292596.0,286047007.2,N
1584292615.8,286047000.6,N
1584292635.6,286046993.1,N
1584292655.5,286047001.8,N
1584292675.3,286046997.0,N
1584292695.1,286047002.8,N
1584292715.9,286047008.8,N
1584292735.7,286047008.3,N
1584292755.6,286047007.8,N
1584292775.4,286047004.9,N
1584292795.2,286046999.9,N
1584292815.1,286046998.9,N
1584292816.0,286046998.9,N
1584292835.8,286046998.2,N
1584292855.7,286047005.8,N
1584292875.5,286047001.9,N
1584292895.3,286047006.8,N
1584292915.2,286047012.3,N
1584292935.0,286047007.9,N
1584292935.9,286047007.9,N
1584292955.8,286047003.5,N
1584292975.6,286047005.7,N
1584292995.4,286047002.9,N
1584293015.3,286047006.1,N
1584293035.1,286047002.6,N
1584293055.8,286046996.1,N
1584293075.7,286046996.6,N
1584293095.5,286046997.3,N
1584293115.4,286046998.6,N
1584293135.2,286046997.6,N
1584293155.0,286046995.4,N
1584293155.9,286046995.4,N
1584293175.8,286047000.2,N
1584293195.6,286046995.8,N
1584293215.5,286046997.6,N
1584293235.3,286046999.7,N
1584293255.1,286046996.9,N
1584293275.9,286046999.4,N
1584293295.7,286046999.4,N
1584293315.6,286047002.0,N
1584293335.4,286047001.6,N
1584293355.2,286047007.1,N
1584293375.1,286047007.5,N
1584293376.0,286047007.5,N
1584293395.8,286047007.6,N
1584293415.7,286047009.0,N
1584293435.5,286047008.2,N
1584293455.3,286047002.2,N
1584293475.2,286047007.2,N
1584293495.0,286047006.5,N
1584293495.9,286047006.5,N
1584293515.8,286047004.1,N
1584293535.6,286047000.0,N
1584293555.4,286046997.1,N
1584293575.3,286047002.8,N
1584293595.1,286047003.3,N
1584293615.8,286047007.5,N
1584293635.7,286047008.5,N
1584293655.5,286047008.7,N
1584293675.4,286047009.1,N
1584293695.2,286047012.2,N
1584293715.0,286047013.6,N
1584293715.9,286047013.6,N
1584293735.8,286047010.0,N
1584293755.6,286047010.0,N
1584293775.4,286047011.4,N
1584293795.3,286047013.0,N
1584293815.1,286047013.3,Y
1584293835.9,286047008.7,P
1584293855.7,286047012.0,P
1584293875.5,286047012.4,P
1584293895.4,286047008.7,Y
1584293915.2,286046995.1,P
1584293935.0,286046997.6,N
1584293936.0,286046997.6,N
1584293955.8,286047002.1,N
1584293975.6,286047006.1,N
1584293995.5,286047001.7,N
1584294015.3,286046999.9,N
1584294035.1,286046998.9,N
1584294055.9,286047004.0,N
1584294075.7,286047002.9,N
1584294095.6,286047004.0,N
1584294115.4,286047003.7,N
1584294135.2,286047009.1,N
1584294155.1,286047008.9,N
1584294156.0,286047008.9,N
1584294175.8,286047006.4,N
1584294195.6,286047005.3,N
1584294215.5,286047007.7,N
1584294235.3,286047007.7,N
1584294255.2,286047009.4,N
1584294275.9,286047012.9,N
1584294295.7,286047022.4,Y
1584294315.6,286047025.5,P
1584294335.4,286047025.4,N
1584294355.2,286047024.1,N
1584294375.1,286047027.0,Y
1584294376.0,286047027.0,P
1584294395.8,286047008.8,N
1584294415.7,286047011.3,N
1584294435.5,286047015.5,N
1584294455.3,286047016.5,N
1584294475.2,286047015.7,N
1584294495.0,286047020.2,Y
1584294495.9,286047020.2,P
1584294515.8,286047003.5,N
1584294535.6,286047005.9,N
1584294555.4,286047003.5,N
1584294575.3,286047008.5,N
1584294595.1,286047004.8,N
1584294615.8,286047005.0,N
1584294635.7,286047007.4,N
1584294655.5,286047011.4,N
1584294675.4,286047016.0,N
1584294695.2,286047018.6,Y
1584294715.0,286047007.0,P
1584294715.9,286047007.0,P
1584294735.8,286047004.0,P
1584294755.6,286046996.4,N
1584294775.4,286046989.2,N
1584294795.3,286046991.9,N
1584294815.1,286046991.7,N
1584294835.9,286046999.0,N
1584294855.7,286047003.6,N
1584294875.5,286047004.0,N
1584294925.4,286047007.9,E
1584294935.3,286047010.7,N
1584294955.1,286047007.0,P
1584294975.9,286047007.1,P
1584294995.7,286047013.5,Y
1584295015.6,286047006.6,P
1584295035.4,286047008.8,P
1584295055.2,286047007.9,P
1584295075.1,286047013.0,Y
1584295076.0,286047013.0,P
1584295095.8,286046999.7,N
1584295115.7,286046999.9,N
1584295135.5,286047001.0,N
1584295155.3,286046996.6,N
1584295175.2,286046995.1,N
1584295195.0,286046994.7,N
1584295195.9,286046994.7,N
